Terminal Aerodrome Forecast
Issued by NWS

Home | Current Version | Previous Version | Text Only | Print | Product List | Glossary On
Versions: 1 2 3 4 5 6 7 8 9 10 11 12 13 14 15 16
000
FTAK31 PAJN 231100
TAFAJN
TAF
PAJN 231123Z 2312/2412 10007KT P6SM -RA FEW012 BKN030 OVC040
     FM232100 14007KT P6SM -RA SCT015 BKN035 OVC045
     FM240600 08004KT P6SM VCSH SCT015 OVC040=

USA.gov is the U.S. government's official web portal to all federal, state and local government web resources and services.